Miscellaneous Local Product
Issued by NWS North Platte, NE

Home | Current Version | Previous Version | Graphics & Text | Print | Product List | Glossary On
Versions: 1 2 3 4 5 6 7 8 9 10 11 12 13 14 15 16 17 18 19 20 21 22 23 24 25 26 27 28 29 30 31 32 33 34 35 36 37 38 39 40 41 42 43 44 45 46 47 48 49 50
322
AXUS43 KLBF 170810
MISLBF


WESTERN AND NORTH CENTRAL NEBRASKA HOURLY WEATHER ROUNDUP
NATIONAL WEATHER SERVICE NORTH PLATTE NE
300 AM CDT TUE OCT 17 2017

NOTE: "FAIR" INDICATES FEW OR NO CLOUDS BELOW 12,000 FEET WITH NO
SIGNIFICANT WEATHER AND/OR OBSTRUCTIONS TO VISIBILITY.

NOTE: STATIONS NOT REPORTING VARIABLES SUCH AS SKY/WEATHER OR
PRESSURE ARE PROVIDED BY RAWS AND APRS NETWORKS AND ARE NOT UNDER
NATIONAL WEATHER SERVICE QUALITY CONTROL.

...OBSERVATIONS IN AND NEAR THE EASTERN PANHANDLE OF NEBRASKA...

CITY           SKY/WX    TMP DP  RH WIND       PRES   REMARKS
PINE RIDGE     CLEAR     31  29  92 NE3       30.13S
GORDON         FAIR      36  29  76 CALM      30.13S
CHADRON        CLEAR     34  26  72 CALM      30.14S
ALLIANCE       CLOUDY    29  24  82 CALM      30.16S
SIDNEY         CLOUDY    34  25  69 NW12      30.20S WCI  25
CRESCENT LAKE    N/A     42  30  61 CALM        N/A
$$

...OBSERVATIONS IN NORTHERN NEBRASKA AND FAR SOUTHERN SOUTH DAKOTA...

CITY           SKY/WX    TMP DP  RH WIND       PRES   REMARKS
WINNER         FAIR      45  36  70 SW9       30.07R
VALENTINE      CLEAR     35  31  85 W8        30.10S WCI  29
THEDFORD       CLEAR     41  32  69 W3        30.13S
AINSWORTH      CLEAR     43  35  74 W6        30.10S
O`NEILL        CLEAR     44  39  82 W6        30.07R
ORD            CLEAR     39  34  82 NW5       30.06R
BROKEN BOW     CLEAR     45  35  68 N7        30.08R
VALENTINE NWR    N/A     42  33  70 CALM        N/A
HALSEY           N/A     45  29  54 W5          N/A
BUTTE            N/A     51  38  62 SW3         N/A
CHAMBERS         N/A     44  35  72 CALM        N/A
EWING            N/A     44  38  79 CALM        N/A
$$

...OBSERVATIONS IN SOUTHWEST NEBRASKA AND FAR NORTHEAST COLORADO...

CITY           SKY/WX    TMP DP  RH WIND       PRES   REMARKS
WRAY           FAIR      37  28  70 W8        30.19R WCI  31
HOLYOKE        FAIR      39  32  75 W7        30.18R WCI  34
IMPERIAL       CLOUDY    40  29  64 W5        30.15R
OGALLALA       CLEAR     35  32  87 SW6       30.15S WCI  30
NORTH PLATTE   CLEAR     37  33  85 W3        30.12S
MCCOOK         CLEAR     43  38  82 W10       30.11S
LEXINGTON      CLEAR     41  35  80 W6        30.09R
STAPLETON        N/A     44  31  60 CALM        N/A
GOTHENBURG       N/A     46  34  62 W6          N/A
CALLAWAY         N/A     43  39  86 N8          N/A
$$

...OBSERVATIONS IN CENTRAL LINCOLN COUNTY AREA...

CITY           SKY/WX    TMP DP  RH WIND       PRES   REMARKS
N.P. AIRPORT   CLEAR     37  33  85 W3        30.12S
N.P. DOWNTOWN    N/A     41  33  74 CALM        N/A
N.P. SOUTHEAST   N/A     43  33  67 CALM        N/A
N.P. HILLCREST   N/A     44  30  59 N3          N/A
$$

...SOME OBSERVATIONS FROM AROUND THE REGION...

CITY           SKY/WX    TMP DP  RH WIND       PRES   REMARKS
DENVER         CLOUDY    43  19  38 SW10      30.26S
LIMON          CLOUDY    33  22  63 NW6       30.27S WCI  28
ASPEN          CLOUDY    30  11  45 SW8       30.46F WCI  22
LARAMIE        CLOUDY    33   9  36 SE8       30.33F WCI  26
CASPER         CLOUDY    36  18  48 W8        30.22S WCI  30
CHEYENNE       CLOUDY    45  11  25 W16       30.27F
SCOTTSBLUFF    CLOUDY    34  26  72 N8        30.18S WCI  27
GRAND ISLAND   CLEAR     50  39  66 S9        30.07F
OMAHA          CLEAR     49  41  74 S10       30.11S
SIOUX FALLS    CLEAR     41  39  93 CALM      30.03R
PIERRE         CLEAR     45  36  70 SW3       30.02S
RAPID CITY     CLEAR     44  27  51 W8        30.09S
BISMARCK       CLEAR     35  30  82 CALM      29.97F
KANSAS CITY    MOCLDY    52  41  66 S12       30.21F
HILL CITY      CLEAR     51  38  60 W3        30.11S
WICHITA        CLEAR     49  42  77 S10       30.21F
DODGE CITY     CLEAR     48  35  60 S14       30.16F
OKLAHOMA CITY  PTCLDY    44  40  85 SE8       30.26F
DALLAS         CLEAR     57  42  57 CALM      30.27S
AMARILLO       CLEAR     45  36  70 S13       30.23F
$$




USA.gov is the U.S. government's official web portal to all federal, state and local government web resources and services.